Regional Weather Roundup
Issued by NWS

Home | Current Version | Previous Version | Graphics & Text | Print | Product List | Glossary On
Versions: 1 2 3 4 5 6 7 8 9 10 11 12 13 14 15 16 17 18 19 20 21 22 23 24 25 26 27 28 29 30 31 32 33 34 35 36 37 38 39 40 41 42 43 44 45 46 47 48 49 50
729
ASUS44 KJAN 250303
RWRMS

MISSISSIPPI HOURLY WEATHER ROUNDUP
NATIONAL WEATHER SERVICE JACKSON MS
1000 PM CDT THU JUL 24 2014

NOTE: "FAIR: INDICATES FEW OR NO CLOUDS BELOW 12,000 FEET WITH NO
SIGNIFICANT WEATHER AND/OR OBSTRUCTIONS TO VISIBILITY.

MSZ001>002-007>008-010>013-018>021-025>028-034>036-250400-
NORTHWEST MISSISSIPPI

CITY           SKY/WX    TMP DP  RH WIND       PRES   REMARKS
CLARKSDALE     FAIR      66  64  94 N5        30.04R
CLEVELAND      FAIR      71  69  93 N5        30.01S
GREENWOOD      CLEAR     70  66  87 N5        30.01R
GREENVILLE     CLEAR     74  68  81 N6        30.01R
GRENADA        FAIR      64  63  94 CALM      30.03R
OLIVE BRANCH   CLEAR     70  66  88 CALM      30.04R
OXFORD         FAIR      66  59  77 CALM      30.05R
TUNICA         CLEAR     64  61  88 NW6       30.05R
$$

MSZ003>006-009-014>017-022>024-029>033-037>039-250400-
NORTHEAST MISSISSIPPI

CITY           SKY/WX    TMP DP  RH WIND       PRES   REMARKS
BELMONT        FAIR      70  62  76 CALM      30.02S
COLUMBUS AFB   CLEAR     73  62  68 N2        30.01R
CORINTH        FAIR      66  63  88 CALM      30.02R
GOLDN TRIANGLE CLEAR     75  66  73 N6        30.01R
STARKVILLE     FAIR      73  66  78 CALM      30.01R
TUPELO         CLEAR     70  61  73 N3        30.02R
$$

MSZ040-058-250400-
CENTRAL MISSISSIPPI

CITY           SKY/WX    TMP DP  RH WIND       PRES   REMARKS
JACKSON INTL   CLEAR     79  74  84 N6        29.99R
JACKSON HAWKNS CLEAR     80  72  76 N5        30.00R
MERIDIAN KEY   MOCLDY    75  73  93 SW3       30.00R
MERIDIAN NAS   CLOUDY    76  73  91 CALM      30.00R
RAYMOND        FAIR      75  72  88 CALM      30.00R
VICKSBURG      CLEAR     79  73  82 N7        29.99R
$$

MSZ059>079-250400-
SOUTH MISSISSIPPI

CITY           SKY/WX    TMP DP  RH WIND       PRES   REMARKS
BROOKHAVEN     FAIR      75  75 100 CALM      30.01R
COLUMBIA       MOCLDY    77  75  94 CALM      29.98R
HATTIESBURG    PTCLDY    81  74  79 S5        29.98R
MCCOMB         CLEAR     77  73  87 NW3       29.98S
NATCHEZ        CLEAR     75  72  88 CALM      29.99S
PINE BELT      PTCLDY    79  70  73 N9        30.01R
$$

MSZ080>082-250400-
COASTAL MISSISSIPPI

CITY           SKY/WX    TMP DP  RH WIND       PRES   REMARKS
BILOXI         CLEAR     82  74  77 S7        29.98R
PASCAGOULA     CLEAR     77  74  90 CALM      29.98R
GULFPORT       CLEAR     84  74  71 S3        29.97R HX  91
$$



USA.gov is the U.S. government's official web portal to all federal, state and local government web resources and services.